Location: Cactus School
(34.5700°N, 118.0931°W)
Time: 20:36:38
(UTC-07:00)

Vanguard 1 - All Passes

Search period start: 21 April 2024 00:00
Search period end: 01 May 2024 00:00
Orbit: 653 x 3825 km, 34.2° (Epoch: 21 April)

Date Brightness Start Highest point End Pass type
(mag) Time Alt. Az. Time Alt. Az. Time Alt. Az.
21 Apr - 00:14:28 10° SSE 00:23:40 14° SE 00:32:46 10° ESE visible
21 Apr - 02:27:12 10° SSW 02:48:06 43° SE 03:05:08 10° E visible
21 Apr - 04:50:44 10° WSW 05:13:39 74° SSE 05:27:59 10° E visible
21 Apr - 07:19:09 10° W 07:38:29 89° S 07:48:42 10° E daylight
21 Apr - 09:47:38 10° WNW 10:00:59 64° SSW 10:08:03 10° SE daylight
21 Apr - 12:15:29 10° W 12:20:09 16° SW 12:23:46 10° SSW daylight
22 Apr - 00:29:47 10° S 00:43:54 20° SE 00:57:45 10° E visible
22 Apr - 02:46:37 10° SW 03:08:37 51° SSE 03:26:02 10° E visible
22 Apr - 05:11:29 10° WSW 05:34:24 80° SSE 05:48:22 10° E visible
22 Apr - 07:40:22 10° W 07:59:09 88° S 08:08:57 10° E daylight
22 Apr - 10:08:40 10° WNW 10:21:04 52° SSW 10:27:53 10° SE daylight
23 Apr - 00:47:10 10° S 01:04:07 28° SE 01:20:35 10° E visible
23 Apr - 03:06:24 10° SW 03:29:12 60° SSE 03:46:44 10° ENE visible
23 Apr - 05:32:26 10° WSW 05:55:11 85° S 06:08:44 10° E visible
23 Apr - 08:01:34 10° W 08:19:42 84° SSW 08:29:10 10° ESE daylight
23 Apr - 10:29:45 10° W 10:40:59 40° SW 10:47:28 10° SSE daylight
24 Apr - 01:05:30 10° SSW 01:24:20 35° SE 01:42:27 10° E visible
24 Apr - 03:26:31 10° SW 03:49:52 68° SSE 04:07:19 10° ENE visible
24 Apr - 05:53:31 10° W 06:16:00 88° S 06:29:05 10° E daylight
24 Apr - 08:22:43 10° W 08:40:11 77° SSW 08:49:16 10° ESE daylight
24 Apr - 10:51:02 10° W 11:00:42 30° SW 11:06:45 10° SSE daylight
24 Apr - 23:12:45 10° SSE 23:20:56 13° SE 23:29:31 10° ESE visible
25 Apr - 01:24:24 10° SSW 01:44:37 44° SE 02:03:46 10° E visible
25 Apr - 03:46:54 10° WSW 04:10:36 75° SSE 04:27:49 10° ENE visible
25 Apr - 06:14:42 10° W 06:36:49 89° S 06:49:25 10° E daylight
25 Apr - 08:43:49 10° WNW 09:00:30 67° SSW 09:09:17 10° SE daylight
25 Apr - 11:12:43 10° W 11:20:17 21° SW 11:25:32 10° S daylight
25 Apr - 23:27:54 10° SSE 23:40:54 20° SE 23:54:56 10° E visible
26 Apr - 01:43:46 10° SW 02:05:00 52° SE 02:24:46 10° ENE visible
26 Apr - 04:07:32 10° WSW 04:31:26 81° SSE 04:48:16 10° E visible
26 Apr - 06:35:54 10° W 06:57:35 88° S 07:09:44 10° E daylight
26 Apr - 09:04:55 10° WNW 09:20:39 56° SSW 09:29:07 10° SE daylight
26 Apr - 11:35:29 10° W 11:39:44 13° SW 11:43:12 10° SSW daylight
26 Apr - 23:45:16 10° S 00:00:51 27° SE 00:17:57 10° E visible
27 Apr - 02:03:29 10° SW 02:25:28 61° SSE 02:45:34 10° ENE visible
27 Apr - 04:28:22 10° WSW 04:52:19 86° S 05:08:43 10° E visible
27 Apr - 06:57:06 10° W 07:18:16 84° SSW 07:29:58 10° ESE daylight
27 Apr - 09:26:04 10° WNW 09:40:36 45° SW 09:48:43 10° SSE daylight
28 Apr - 00:03:34 10° SSW 00:20:51 35° SE 00:39:58 10° E visible
28 Apr - 02:23:30 10° SW 02:46:05 69° SSE 03:06:14 10° ENE visible
28 Apr - 04:49:21 10° W 05:13:15 89° S 05:29:09 10° E visible
28 Apr - 07:18:15 10° W 07:38:51 78° SSW 07:50:08 10° ESE daylight
28 Apr - 09:47:23 10° W 10:00:20 35° SW 10:08:03 10° SSE daylight
28 Apr - 22:12:33 10° SE 22:18:19 12° SE 22:24:33 10° ESE visible
29 Apr - 00:22:26 10° SSW 00:40:54 43° SE 01:01:26 10° ENE visible
29 Apr - 02:43:47 10° WSW 03:06:50 76° SSE 03:26:50 10° ENE visible
29 Apr - 05:10:25 10° W 05:34:11 89° S 05:49:35 10° E visible
29 Apr - 07:39:22 10° WNW 07:59:15 70° SSW 08:10:09 10° SE daylight
29 Apr - 10:09:02 10° W 10:19:54 26° SW 10:26:57 10° S daylight
29 Apr - 22:26:57 10° SSE 22:38:02 18° SE 22:50:56 10° E visible
30 Apr - 00:41:44 10° SSW 01:01:06 52° SE 01:22:32 10° ENE visible
30 Apr - 03:04:17 10° WSW 03:27:41 82° SSE 03:47:24 10° E visible
30 Apr - 05:31:31 10° W 05:55:05 88° S 06:09:57 10° E visible
30 Apr - 08:00:30 10° WNW 08:19:28 60° SSW 08:30:00 10° SE daylight
30 Apr - 10:31:23 10° W 10:39:20 18° SW 10:45:08 10° SSW daylight
30 Apr - 22:44:11 10° S 22:57:44 26° SE 23:14:16 10° E visible
